SL-8 R/B

Satellite information

Favourite Embed

Satellite Type and Status

ROCKET BODYIN ORBIT

Key statistics

Satellite SL-8 R/B at a glance.

Uptime

14109

Days in orbit

Revolutions

≈ 12.2

Per day

Orbit

LEO

Low Earth Orbit

Inclination

74.0

Latest

Satellite identification and parameters

Extended collection of information and parameters for SL-8 R/B.

Object identification

Identified? True

Debris? False

Object name: SL-8 R/B

International designator: 1986-092J

Object number (NORAD): 17146

Object ID (CCSDS): 17146

Country: COMMONWEALTH OF INDEPENDENT STATES (CIS)

Current information (Y/N): Y

RCS size: LARGE

Orbital parameters

Period: 117.679 minutes

Inclination: 74.012 deg

SMA: 7954.764 km

Apoapsis: 1675.806 km

Periapsis: 1477.451 km

RAAN: 236.2768 deg

Eccentricy: 0.0124677

Argument of periapsis: 263.9566 deg

Mean anomaly: 272.2072 deg

Mean motion: 12.23663014 rev/day

Mean motion (dot): -0.00000048 rev/day2

B* drag term: -0.00028973 1/REarth

Two-line elements (TLE)

Creation date: July 7, 2025, 10:26 p.m.

Reference frame: TEME

Reference center: EARTH

Epoch: July 7, 2025, 9:26 p.m. UTC

TLE line 0: 0 SL-8 R/B

TLE line 1: 1 17146U 86092J 25188.89336924 -.00000048 00000-0 -28973-3 0 9998

TLE line 2: 2 17146 74.0120 236.2768 0124677 263.9566 272.2072 12.23663014725827

Live tracking on map

Real-time ground track for satellite SL-8 R/B.

In-orbit conjunctions

A list of the most updated potential collisions computed for object SL-8 R/B.

Target Orbit TCA Probability of collision Miss distance Type
THORAD DELTA 1 DEB SSO 2024-11-09 09:53:06 0.0001915826 87.0 (m) DEBRIS

Associated space launch

Military communications satellites

SL-8 R/B was lifted into orbit during the mission ‘Kosmos-3M | Strela-1M 313-320’, on board a Kosmos-3M space rocket.

The launch took place on Nov. 21, 1986, 2 a.m. from 132/2.

For more information about the launch, click the button.

Launch to space Kosmos-3M | Strela-1M 313-320
Kosmos-3M | Strela-1M 313-320

Agency: N/A

Status: Launch Successful

Launch date: Nov. 21, 1986, 2 a.m. UTC

Rocket: Kosmos-3M

Launch pad: 132/2

Location: Plesetsk Cosmodrome, Russian Federation

...

Latest news about this satellite

There are no fresh news available about this satellite. Check back as we update our databases every day.


Newsletter sign-up

Weekly statistics, charts and insights to help you stay on top of the space industry.